Latest Coastal Weather Observations for Cape Wessel

IDD60701

Issued at 4:21 am CST Monday 6 April 2020 (issued every 10 minutes, with the page automatically refreshed every 10 minutes)

About coastal observations | Map of coastal stations | Coastal observations for NT | Marine services | Other Formats
Station Details ID: 200786 Name: CAPE WESSEL Lat: -11.00 Lon: 136.76 Height: 18.0 m
Data from the previous 72 hours. | See also: Recent months at Cape Wessel
Date/Time
CST
Wind Sea
Height
m
Swell Vis
km
Cloud Weather Temp
°C
Press
hPa
Rain since
9am
mm
Dir  Spd
kts
Gust
kts
Height
m
Period
s
Dir
06/04:00am E 12 15 - - - - - - - 28.3 1009.1 0.0
06/03:30am ESE 11 14 - - - - - - - 28.2 1008.9 0.0
06/03:00am ESE 10 12 - - - - - - - 28.2 1009.2 0.0
06/02:30am E 12 14 - - - - - - - 28.3 1009.4 0.0
06/02:00am E 11 13 - - - - - - - 28.4 1009.9 0.0
06/01:30am ESE 11 14 - - - - - - - 28.4 1010.2 0.0
06/01:00am ESE 13 16 - - - - - - - 28.5 1010.4 0.0
06/12:30am ESE 12 15 - - - - - - - 28.4 1010.7 0.0
06/12:00am ESE 13 16 - - - - - - - 28.5 1010.9 0.0
 
Date/Time
CST
Wind Sea
Height
m
Swell Vis
km
Cloud Weather Temp
°C
Press
hPa
Rain since
9am
mm
Dir  Spd
kts
Gust
kts
Height
m
Period
s
Dir
05/11:30pm ESE 13 15 - - - - - - - 28.6 1011.3 0.0
05/11:00pm ESE 11 14 - - - - - - - 28.5 1011.5 0.0
05/10:30pm ESE 12 14 - - - - - - - 28.5 1011.5 0.0
05/10:00pm ESE 11 14 - - - - - - - 28.5 1011.5 0.0
05/09:30pm E 11 13 - - - - - - - 28.6 1011.6 0.0
05/09:00pm ESE 11 14 - - - - - - - 28.5 1011.4 0.0
05/08:30pm ESE 11 13 - - - - - - - 28.5 1010.9 0.0
05/08:00pm ESE 11 15 - - - - - - - 28.6 1010.6 0.0
05/07:30pm ESE 13 15 - - - - - - - 28.6 1010.3 0.0
05/07:00pm ESE 12 15 - - - - - - - 28.6 1010.0 0.0
05/06:30pm ESE 10 13 - - - - - - - 28.7 1009.8 0.0
05/06:00pm ESE 11 14 - - - - - - - 29.2 1009.4 0.0
05/05:30pm ESE 10 13 - - - - - - - 29.6 1009.4 0.0
05/05:00pm E 10 13 - - - - - - - 30.8 1009.1 0.0
05/04:30pm ESE 10 13 - - - - - - - 31.3 1008.9 0.0
05/04:00pm ESE 10 12 - - - - - - - 32.2 1008.8 0.0
05/03:30pm E 10 12 - - - - - - - 32.0 1008.7 0.0
05/03:00pm E 10 12 - - - - - - - 31.9 1008.8 0.0
05/02:30pm E 9 12 - - - - - - - 32.7 1009.2 0.0
05/02:00pm E 9 12 - - - - - - - 33.2 1009.3 0.0
05/01:30pm E 10 13 - - - - - - - 31.7 1009.8 0.0
05/01:00pm E 10 14 - - - - - - - 33.1 1010.1 0.0
05/12:30pm ENE 11 14 - - - - - - - 33.2 1010.2 0.0
05/12:00pm E 10 13 - - - - - - - 32.6 1010.7 0.0
05/11:30am ENE 8 11 - - - - - - - 31.9 1010.7 0.0
05/11:00am ENE 10 14 - - - - - - - 32.1 1011.1 0.0
05/10:30am E 9 12 - - - - - - - 32.3 1011.2 0.0
05/10:00am E 8 11 - - - - - - - 31.7 1011.2 0.0
05/09:30am E 8 11 - - - - - - - 31.7 1011.2 0.0
05/09:00am E 8 10 - - - - - - - 31.1 1011.0 0.0
05/08:30am E 8 11 - - - - - - - 30.7 1011.0 0.0
05/08:00am ESE 7 9 - - - - - - - 30.3 1010.7 0.0
05/07:30am ESE 9 11 - - - - - - - 28.5 1010.4 0.0
05/07:00am E 7 9 - - - - - - - 28.1 1010.0 0.0
05/06:30am E 8 10 - - - - - - - 27.5 1009.6 0.0
05/06:00am E 9 11 - - - - - - - 27.7 1009.7 0.0
05/05:30am E 7 10 - - - - - - - 27.7 1009.8 0.0
05/05:00am E 7 9 - - - - - - - 27.8 1009.7 0.0
05/04:30am E 5 7 - - - - - - - 27.6 1009.5 0.0
05/04:00am E 6 7 - - - - - - - 27.3 1009.3 0.0
05/03:30am E 7 8 - - - - - - - 27.5 1009.1 0.0
05/03:00am E 7 9 - - - - - - - 27.6 1008.9 0.0
05/02:30am E 8 11 - - - - - - - 27.8 1009.3 0.0
05/02:00am E 7 10 - - - - - - - 27.8 1009.5 0.0
05/01:30am ENE 8 10 - - - - - - - 28.0 1009.7 0.0
05/01:00am ENE 9 11 - - - - - - - 28.1 1010.1 0.0
05/12:30am ENE 8 10 - - - - - - - 28.2 1010.6 0.0
05/12:00am E 8 11 - - - - - - - 28.3 1011.1 0.0
 
Date/Time
CST
Wind Sea
Height
m
Swell Vis
km
Cloud Weather Temp
°C
Press
hPa
Rain since
9am
mm
Dir  Spd
kts
Gust
kts
Height
m
Period
s
Dir
04/11:30pm ENE 8 11 - - - - - - - 28.3 1011.3 0.0
04/11:00pm ENE 7 9 - - - - - - - 28.4 1011.6 0.0
04/10:30pm E 8 9 - - - - - - - 28.3 1011.5 0.0
04/10:00pm ENE 8 10 - - - - - - - 28.2 1011.3 0.0
04/09:30pm ENE 8 11 - - - - - - - 28.4 1011.2 0.0
04/09:00pm ENE 7 9 - - - - - - - 28.3 1010.9 0.0
04/08:30pm ENE 8 10 - - - - - - - 28.3 1010.1 0.0
04/08:00pm ENE 7 9 - - - - - - - 28.2 1009.3 0.0
04/07:30pm ENE 6 8 - - - - - - - 28.0 1008.7 0.0
04/07:00pm ENE 6 8 - - - - - - - 28.1 1008.2 0.0
04/06:30pm NE 6 8 - - - - - - - 28.3 1007.6 0.0
04/06:00pm NE 5 7 - - - - - - - 29.6 1007.8 0.0
04/05:30pm NE 5 7 - - - - - - - 30.6 1007.7 0.0
04/05:00pm NE 6 7 - - - - - - - 30.7 1007.6 0.0
04/04:30pm NE 5 7 - - - - - - - 30.8 1007.7 0.0
04/04:00pm NNE 6 8 - - - - - - - 31.8 1007.7 0.0
04/03:30pm NE 6 7 - - - - - - - 32.6 1007.8 0.0
04/03:00pm N 7 9 - - - - - - - 32.5 1007.9 0.0
04/02:30pm NNE 8 10 - - - - - - - 32.9 1007.9 0.0
04/02:00pm NNE 8 10 - - - - - - - 32.9 1008.1 0.0
04/01:30pm NNE 8 10 - - - - - - - 33.2 1008.5 0.0
04/01:00pm NNE 9 11 - - - - - - - 33.0 1008.8 0.0
04/12:30pm NNE 10 12 - - - - - - - 33.1 1009.3 0.0
04/12:00pm NNE 10 14 - - - - - - - 32.9 1009.5 0.0
04/11:30am NNE 9 12 - - - - - - - 32.8 1010.1 0.0
04/11:00am NNE 9 13 - - - - - - - 32.5 1010.2 0.0
04/10:30am NE 9 12 - - - - - - - 31.9 1010.6 0.0
04/10:00am NE 8 11 - - - - - - - 32.4 1010.7 0.0
04/09:30am NE 7 9 - - - - - - - 30.5 1010.7 0.0
04/09:00am NE 7 9 - - - - - - - 31.6 1010.6 0.0
04/08:30am NNE 7 10 - - - - - - - 31.2 1010.3 0.0
04/08:00am NE 7 10 - - - - - - - 29.8 1010.2 0.0
04/07:30am NNE 7 9 - - - - - - - 29.0 1010.1 0.0
04/07:00am NNE 6 8 - - - - - - - 27.4 1009.8 0.0
04/06:30am NE 8 9 - - - - - - - 27.3 1009.3 0.0
04/06:00am NNE 8 11 - - - - - - - 27.7 1009.2 0.0
04/05:30am NNE 9 11 - - - - - - - 27.8 1008.9 0.0
04/05:00am NNE 9 11 - - - - - - - 27.7 1008.5 0.0
04/04:30am NNE 8 9 - - - - - - - 27.5 1008.4 0.0
04/04:00am NNE 8 11 - - - - - - - 27.6 1008.3 0.0
04/03:30am NNE 8 10 - - - - - - - 27.6 1008.4 0.0
04/03:00am NNE 9 11 - - - - - - - 27.7 1008.5 0.0
04/02:30am NNE 10 13 - - - - - - - 27.9 1008.6 0.0
04/02:00am NNE 10 13 - - - - - - - 28.0 1008.8 0.0
04/01:30am NNE 10 13 - - - - - - - 28.0 1009.1 0.0
04/01:00am NNE 8 11 - - - - - - - 28.0 1009.5 0.0
04/12:30am NE 6 9 - - - - - - - 27.9 1009.8 0.0
04/12:00am NE 8 10 - - - - - - - 27.9 1009.9 0.0
 
Date/Time
CST
Wind Sea
Height
m
Swell Vis
km
Cloud Weather Temp
°C
Press
hPa
Rain since
9am
mm
Dir  Spd
kts
Gust
kts
Height
m
Period
s
Dir
03/11:30pm NE 8 10 - - - - - - - 27.9 1010.2 0.0
03/11:00pm NE 8 11 - - - - - - - 28.1 1010.2 0.0
03/10:30pm NE 7 9 - - - - - - - 27.8 1010.3 0.0
03/10:00pm NE 7 9 - - - - - - - 27.8 1010.2 0.0
03/09:30pm ENE 6 7 - - - - - - - 27.7 1010.2 0.0
03/09:00pm NE 7 10 - - - - - - - 27.8 1009.7 0.0
03/08:30pm NE 7 8 - - - - - - - 27.6 1009.4 0.0
03/08:00pm NE 7 9 - - - - - - - 27.7 1009.0 0.0
03/07:30pm NE 7 8 - - - - - - - 27.7 1008.7 0.0
03/07:00pm NE 7 9 - - - - - - - 27.8 1008.5 0.0
03/06:30pm NNE 8 11 - - - - - - - 28.1 1008.2 0.0
03/06:00pm NNE 7 9 - - - - - - - 28.9 1008.1 0.0
03/05:30pm NNE 7 9 - - - - - - - 29.8 1008.1 0.0
03/05:00pm NNE 7 10 - - - - - - - 30.6 1008.1 0.0
03/04:30pm NNE 9 11 - - - - - - - 31.0 1008.0 0.0
03/04:00pm NNE 9 11 - - - - - - - 31.5 1008.0 0.0
03/03:30pm NNE 9 11 - - - - - - - 32.1 1007.9 0.0
03/03:00pm NNE 9 11 - - - - - - - 32.0 1008.1 0.0
03/02:30pm NNE 8 11 - - - - - - - 32.2 1008.4 0.0
03/02:00pm NNE 8 11 - - - - - - - 32.8 1008.6 0.0
03/01:30pm NNE 8 10 - - - - - - - 33.0 1008.8 0.0
03/01:00pm NNE 9 11 - - - - - - - 33.0 1009.1 0.0
03/12:30pm NNE 9 11 - - - - - - - 32.9 1009.7 0.0
03/12:00pm NE 9 11 - - - - - - - 33.0 1010.3 0.0
03/11:30am NE 9 11 - - - - - - - 32.4 1010.7 0.0
03/11:00am NE 9 13 - - - - - - - 32.8 1011.0 0.0
03/10:30am NE 8 10 - - - - - - - 31.9 1011.3 0.0
03/10:00am NE 9 11 - - - - - - - 32.0 1011.4 0.0
03/09:30am NE 9 11 - - - - - - - 31.7 1011.5 0.0
03/09:00am NE 8 10 - - - - - - - 31.4 1011.4 0.0
03/08:30am NE 8 10 - - - - - - - 30.9 1011.0 0.0
03/08:00am NE 8 9 - - - - - - - 30.1 1010.7 0.0
03/07:30am ENE 6 9 - - - - - - - 29.4 1010.5 0.0
03/07:00am E 7 8 - - - - - - - 27.6 1010.0 0.0
03/06:30am E 7 9 - - - - - - - 27.1 1009.5 0.0
03/06:00am E 7 8 - - - - - - - 27.1 1009.1 0.0
03/05:30am E 6 8 - - - - - - - 27.0 1008.8 0.0
03/05:00am E 5 7 - - - - - - - 26.8 1008.8 0.0
03/04:30am E 5 6 - - - - - - - 26.7 1008.7 0.0

Other formats

Comma delimited format used in spreadsheet applications
http://www.bom.gov.au/fwo/IDD60701/IDD60701.94147.axf

JavaScript Object Notation format (JSON) in row-major order
http://www.bom.gov.au/fwo/IDD60701/IDD60701.94147.json

Data quality

Most of these data are generated automatically and are frequently updated. Quality checks on data are not normally performed. It is possible for incorrect values to appear. Refer to information at About Latest Weather Observations and please check the disclaimer before using these data.